Location: Acts Church of Fort Worth
(32.6786°N, 97.2668°W)
Time: 23:29:43
(UTC+00:00)

Cosmos 1140 Rocket - Pass Details

Date: 18 January 2026
Orbit: 739 x 763 km, 74.1° (Epoch: 13 February)

Event Time Altitude Azimuth Distance (km) Brightness Sun altitude
Rises 11:03:23 0° 182° (S) 3,155 6.7 -30.7°
Reaches altitude 10° 11:05:46 10° 176° (S) 2,236 6.0 -30.2°
Maximum altitude 11:10:38 49° 102° (ESE) 948 4.2 -29.1°
Drops below altitude 10° 11:15:32 10° 29° (NNE) 2,256 6.1 -28.1°
Sets 11:17:58 0° 24° (NNE) 3,186 6.9 -27.6°
